Flag for Netherlands Weather past 2 weeks in Nijmegen, Netherlands

Now
77 °F

Warm.


Feels Like: 79 °F
Forecast: 60 / 70 °F
Wind: 10 mph from Northeast

Location: Volkel

Current Time: Jul 24, 2014 at 1:25:05 PM

Latest Report: Jul 24, 2014 at 12:55 PM


Visibility: N/A

Pressure: 29.98 "Hg

Humidity: 54%

Dew point: 59 °F

Location of NijmegenLocation

Historic Weather in Nijmegen — Graph

°F

Nijmegen temperature yesterday

Maximum temperature yesterday: 82 °F (at 2:25 PM)
Minimum temperature yesterday: 66 °F (at 1:55 AM)
Average temperature yesterday: 74 °F

Past Weeks' High & Low Weather Summary

 TemperatureHumidityPressure
High91 °F (Jul 19, 1:25 PM)100% (Jul 9, 12:03 PM)30.18 "Hg (Jul 9, 12:03 PM)
Low50 °F (Jul 15, 5:25 AM)31% (Jul 19, 2:55 PM)29.68 "Hg (Jul 9, 2:55 PM)
Average69 °F80%29.95 "Hg
* Reported Jul 9 12:03 PM — Jul 24 12:25 PM, Nijmegen, Weather by CustomWeather, © 2014

Note: Actual official high and low records may vary slightly from our data, if they occured in-between our weather recording intervals... More about our weather records

Advertising

Nijmegen weather history for previous 24 hours

 ConditionsComfort  
Time TempWeatherWind HumidityBarometerVisibility
12:25 PM
Jul 24
77 °FWarm.12 mph54%29.98 "HgN/A
11:55 AM75 °FMild.10 mph57%30.01 "HgN/A
11:25 AM75 °FMild.14 mph57%30.01 "HgN/A
10:55 AM75 °FPassing clouds.10 mph54%30.01 "HgN/A
10:25 AM73 °FPartly sunny.8 mph61%30.01 "HgN/A
9:55 AM70 °FScattered clouds.7 mph69%30.01 "HgN/A
9:25 AM68 °FHigh level clouds.7 mph73%30.01 "HgN/A
8:55 AM68 °FScattered clouds.9 mph69%30.01 "HgN/A
8:25 AM66 °FMild.9 mph73%30.01 "HgN/A
7:55 AM68 °FMild.8 mph69%30.01 "HgN/A
7:25 AM66 °FMild.9 mph73%30.01 "HgN/A
6:55 AM64 °FMild.6 mph78%30.01 "HgN/A
6:25 AM63 °FMild.5 mph83%29.98 "HgN/A
5:55 AM63 °FMild.6 mph83%29.98 "HgN/A
5:25 AM63 °FMild.6 mph83%29.98 "HgN/A
4:55 AM63 °FMild.5 mph83%30.01 "HgN/A
4:25 AM64 °FMild.6 mph78%30.01 "HgN/A
3:55 AM64 °FMild.6 mph78%30.01 "HgN/A
3:25 AM64 °FMild.7 mph83%30.01 "HgN/A
2:55 AM66 °FMild.7 mph78%30.01 "HgN/A
2:25 AM66 °FMild.6 mph73%30.01 "HgN/A
1:55 AM66 °FMild.7 mph73%30.01 "HgN/A
1:25 AM64 °FMild.5 mph78%30.01 "HgN/A
12:55 AM66 °FMild.5 mph73%30.01 "HgN/A
12:25 AM66 °FMild.6 mph73%30.01 "HgN/A
11:55 PM
Jul 23
68 °FMild.5 mph69%30.04 "HgN/A
11:25 PM68 °FMild.5 mph69%30.04 "HgN/A
10:55 PM70 °FMild.6 mph64%30.04 "HgN/A
10:25 PM70 °FMild.6 mph64%30.04 "HgN/A
9:55 PM72 °FMild.6 mph61%30.01 "HgN/A
8:55 PM75 °FMild.7 mph50%30.01 "HgN/A
8:25 PM77 °FWarm.8 mph47%30.01 "HgN/A
7:55 PM79 °FWarm.10 mph45%30.01 "HgN/A
7:25 PM81 °FWarm.13 mph42%30.01 "HgN/A
6:55 PM81 °FWarm.13 mph42%30.01 "HgN/A
6:25 PM82 °FPleasantly warm.12 mph40%30.01 "HgN/A
5:55 PM82 °FPleasantly warm.13 mph40%30.01 "HgN/A
5:25 PM82 °FPleasantly warm.14 mph40%30.04 "HgN/A
4:55 PM82 °FWarm.13 mph42%30.04 "HgN/A
4:25 PM82 °FWarm.14 mph45%30.04 "HgN/A
3:55 PM82 °FWarm.15 mph42%30.04 "HgN/A
2:55 PM82 °FWarm.15 mph45%30.04 "HgN/A
2:25 PM82 °FScattered clouds.15 mph48%30.07 "HgN/A
1:55 PM81 °FPassing clouds.15 mph54%30.07 "HgN/A
1:25 PM81 °FWarm.14 mph54%30.07 "HgN/A
Weather by CustomWeather, © 2014

See weather overviewHow to use our weather pages